PSLV R/B - Orbit

View from above orbital plane
View from above orbital plane
View from above satellite
View from above satellite

Ground track
Ground track

The orbit data is extracted from the following two-line orbital elements,

1 34809U 09019C   13138.55940410  .00014843  00000-0  42418-3 0  1452
2 34809 041.0883 181.4327 0052914 064.6898 061.5056 15.34277459227324
Epoch (UTC): 18 May 2013 13:25:32
Eccentricity: 0.0052914
inclination: 41.0883°
perigee height: 427 km
apogee height: 499 km
right ascension of ascending node: 181.4327°
argument of perigee: 64.6898°
revolutions per day: 15.34277459
mean anomaly at epoch: 61.5056°
orbit number at epoch: 22732

The dashed part of the orbit path shows where the satellite is in the earth's shadow,  

Developed and maintained by Chris Peat, Heavens-Above GmbH. Please read the updated FAQ before sending e-mail. Imprint. DLR